Vertical_Velocity
2 0 -2 2 -7 -4 -0 -3 0 0 1 1 0 0 -1 2 1 2 1 -1 1 1 6 1 1 1 -1 -0 0 -1 2 3 3 -1 -1 -1 1 -0 -2 2 -0 2 2 1 0 -7 -0 -0 -1
-4 3 -0 -4 -5 -0 -3 -1 -0 -1 -0 -0 1 0 0 2 1 2 3 1 -1 -0 3 4 2 -1 1 1 2 1 0 -1 1 4 1 -1 -2 0 0 -1 1 1 2 0 -0 -1 -3 1 -1
-1 0 -3 -3 -1 -1 -1 -1 -1 -0 0 -0 1 2 1 0 2 0 3 0 0 1 4 2 1 3 -1 1 -2 -1 1 1 -0 0 2 -1 -0 -0 0 -2 2 2 1 -0 0 0 -1 -3 0
-2 -2 -4 -3 -1 -3 0 -0 0 -1 1 1 0 -1 1 2 1 1 2 1 2 2 -1 2 2 -1 -0 -0 -1 0 -2 -3 -1 -1 1 1 1 1 -1 -1 1 1 1 -1 1 -0 0 -3 -0
-0 -2 -2 -0 -1 -0 -0 -1 1 -0 0 0 0 2 1 1 4 3 -0 2 3 4 3 2 -0 1 3 1 0 2 -0 -1 0 -2 -2 0 2 1 0 -0 -0 -1 -1 1 -1 3 -1 1 -3
-6 -2 -2 -0 -1 -0 -1 -0 -0 -0 -0 -0 -1 -0 -0 1 4 -1 1 0 2 3 7 9 7 3 7 3 0 1 2 1 1 1 -1 -3 -1 0 -0 1 -1 -1 0 -1 -0 -1 2 -0 1
-7 -2 -1 -0 -0 -0 -1 1 0 -1 -0 0 -1 0 0 1 2 1 1 2 2 6 3 6 7 11 8 5 3 3 1 2 -2 2 2 1 -2 -1 -0 2 1 -2 -0 0 -1 -2 -1 4 0
-5 -5 0 -0 -0 -2 1 1 1 1 -2 1 -1 -1 0 0 -0 1 0 6 1 0 3 2 2 -2 12 11 11 6 2 2 1 2 2 2 3 -0 -1 -1 1 0 -0 2 1 -0 -2 2 2
-1 -5 -0 -2 -1 -1 -0 -1 -1 -1 -1 -0 0 -0 1 -2 -2 -0 -1 2 3 3 -0 2 -0 0 2 3 10 12 8 7 4 4 3 -0 4 3 3 -2 -3 -0 0 0 1 1 1 -2 2
-5 -2 -4 -1 -1 -0 0 -0 -0 -1 -1 -2 -3 -2 -0 -1 -2 -4 -1 -3 -2 2 1 3 1 1 0 3 3 5 15 7 6 2 1 1 -1 -0 4 5 3 0 1 0 1 1 0 1 -2
1 -2 -1 -0 1 0 -0 -1 -1 0 -2 -5 -6 -4 -5 -6 -4 -1 -3 -3 -4 -2 1 -1 1 1 -1 0 0 4 2 4 6 5 -0 2 1 1 1 1 1 5 1 1 0 1 1 -0 0
-4 0 -0 -0 1 -0 -0 0 -0 1 -18 -3 -4 -3 -7 -4 -2 -4 -4 2 -2 -5 -1 0 -0 1 -2 -0 -1 4 2 2 0 2 3 -0 -2 -0 -1 -0 3 -0 1 -1 5 -1 3 0 0
-1 0 -0 -1 -2 -2 2 -3 -6 -5 -8 -2 0 -2 -4 -6 -3 -3 -3 -4 -3 -9 -2 -1 -2 -1 1 0 -0 -1 -0 3 0 3 1 1 -3 -3 -2 -2 1 -1 2 -1 2 4 -1 2 2
-1 -0 -1 -2 -3 -1 4 -6 8 -4 -0 -2 -0 -4 -1 -3 -3 -2 -5 -9 -2 -2 -8 3 -2 -1 -1 1 0 -0 -2 1 3 -1 1 -0 1 0 -1 0 -5 1 -2 2 -2 2 2 2 2
1 -2 -2 -0 0 -2 1 -3 0 -5 3 -1 -0 -1 -1 -4 -1 -5 -3 -8 -3 -4 -4 -5 -4 4 -1 2 3 1 2 1 0 -0 1 -2 1 -3 3 -1 3 -0 2 -1 2 -1 1 1 3
-2 -4 -1 -1 -0 -1 -2 -12 -1 -0 -1 -5 0 -4 -2 -9 -3 -2 -1 -5 -1 -1 -0 1 -1 0 -1 -2 -0 -2 -2 -2 3 1 1 2 -2 3 1 -3 -2 6 -0 2 -2 -0 1 -2 -1
-3 -0 -0 -5 0 0 3 -6 -3 -5 0 -6 -5 -1 -3 -5 -3 -5 -4 -1 -1 -5 -5 -3 -0 -5 -3 1 -0 1 2 -2 3 2 3 0 1 2 0 3 -3 2 3 -3 -1 0 -2 2 -0
-1 -1 -1 -1 -4 -1 -2 -9 -7 -9 4 -2 -4 -5 -2 -4 -8 -2 1 -0 -1 -2 -4 -3 1 1 -1 -2 2 2 2 -3 -4 1 0 4 3 -6 -3 -1 7 3 1 6 3 3 2 1 5
-2 0 0 -3 -5 5 -2 -1 -7 -8 2 -1 -4 -3 -2 -3 -7 -2 -0 1 -1 -0 -1 -3 -3 -4 0 1 -1 1 -4 -2 -4 -3 -3 1 2 4 2 1 1 5 -5 2 4 5 4 1 1
1 0 -3 -5 -0 3 -2 -9 -5 -0 -3 -1 -1 -1 -1 -3 -3 -3 -3 -0 0 -1 -0 -1 -4 -2 -2 -2 1 3 3 -3 -2 2 0 4 2 2 4 -3 -1 2 1 -2 2 -4 -3 4 -0
-0 -1 -1 -0 -2 -2 3 -5 -2 -3 0 -1 -2 -1 -3 -1 -6 -5 -3 -2 0 -2 -2 -2 -2 -0 0 1 -2 3 6 9 7 3 4 2 5 -1 -2 1 -1 7 4 -2 1 1 -4 -2 3
1 -2 0 0 -1 -2 -2 -7 -2 -1 -2 -0 -3 -2 -4 -1 -3 -4 -6 -2 -2 -1 0 1 -2 -5 -2 7 5 1 -1 -3 3 -0 -1 -5 -1 -6 -6 -1 -4 -0 5 0 -6 4 0 2 -8
-9 -1 -1 0 1 3 -1 3 -13 -0 -2 -3 -5 -3 -4 -3 -2 -9 -5 -2 -3 2 1 2 4 1 1 2 2 -1 -1 -1 -2 1 4 1 2 1 -1 -0 2 2 -0 0 3 -1 -0 4 9
-1 -1 -1 -0 0 2 -3 -1 -8 -1 -2 -6 -7 -6 -3 -4 -5 -5 -6 -0 -3 2 -2 2 2 -4 -4 -4 3 1 0 -1 -4 -0 2 1 3 5 1 1 2 6 10 -5 -2 -2 2 -1 -0
-1 -2 -4 -6 -3 -6 -0 2 -12 -2 -1 6 2 -5 -6 -4 -1 -2 -3 -1 2 -1 -2 -0 2 -0 3 -1 -1 3 -0 6 -2 -5 -5 3 1 -2 -1 -1 -1 -1 -3 -4 1 2 2 -24 -7
-1 -4 -4 -1 -1 -3 0 -2 -13 -2 1 -0 1 2 -1 -4 -4 -4 -1 -3 -7 -2 -1 0 -4 -6 -3 -1 -6 -1 5 1 1 8 -1 -6 1 -7 -1 2 -4 0 0 -10 4 -1 4 -1 -10
-2 3 -6 0 -0 3 -3 -7 -5 -2 -8 -6 -4 -2 -4 -2 1 3 -0 3 1 -3 -4 -2 -0 -2 -2 -2 6 2 5 1 -6 -5 5 1 4 4 0 3 2 2 3 7 2 -0 3 -1 -12
0 1 4 1 -1 -1 -2 -1 -4 -7 -8 -4 -7 -4 -7 -0 -1 -2 -3 1 -3 -4 4 -1 -3 -2 5 -1 -3 1 -0 2 -1 1 -4 5 5 2 3 0 1 -2 -2 2 5 4 2 5 -9
3 -0 1 4 -0 1 0 -7 -3 3 2 2 -1 -0 3 -1 1 5 4 5 4 0 0 -2 -1 5 -1 -2 -0 -1 1 -1 6 1 3 -2 2 2 0 3 0 -3 -0 2 7 -5 5 2 3
1 -1 0 1 -2 -1 1 -10 0 3 2 4 -0 1 4 8 7 -1 2 -2 4 3 0 -2 2 3 -8 -3 2 1 9 7 2 10 -2 -1 -1 7 0 2 -1 1 -0 1 5 8 1 0 -0
Height
1515 1518 1520 1522 1530 1534 1537 1533 1532 1530 1529 1527 1526 1526 1526 1527 1528 1534 1531 1528 1527 1528 1531 1533 1536 1538 1541 1543 1545 1547 1549 1550 1550 1551 1553 1554 1555 1556 1558 1560 1561 1564 1564 1565 1564 1566 1568 1568 1569
1515 1518 1521 1524 1533 1535 1529 1531 1529 1527 1527 1526 1525 1526 1527 1528 1528 1529 1528 1527 1527 1529 1531 1534 1536 1538 1541 1544 1546 1547 1549 1551 1552 1553 1553 1555 1556 1558 1559 1562 1563 1565 1566 1567 1567 1568 1569 1570 1571
1516 1518 1521 1525 1538 1530 1526 1530 1528 1527 1527 1526 1526 1526 1528 1530 1529 1527 1527 1526 1526 1529 1531 1533 1537 1539 1541 1544 1546 1548 1549 1551 1553 1554 1555 1556 1557 1559 1561 1563 1565 1566 1567 1568 1569 1569 1570 1572 1572
1517 1521 1525 1527 1530 1531 1530 1529 1529 1527 1527 1527 1527 1528 1531 1531 1530 1528 1525 1525 1527 1528 1531 1534 1536 1539 1541 1543 1545 1547 1549 1551 1553 1555 1556 1557 1559 1560 1562 1564 1566 1567 1568 1569 1571 1571 1571 1572 1574
1517 1520 1530 1532 1529 1530 1530 1530 1530 1528 1527 1528 1527 1529 1531 1531 1531 1528 1525 1525 1527 1529 1531 1534 1537 1539 1541 1543 1545 1547 1548 1550 1552 1554 1556 1558 1559 1561 1563 1565 1567 1568 1570 1571 1572 1573 1573 1573 1575
1518 1523 1532 1531 1530 1530 1530 1529 1529 1529 1528 1528 1529 1530 1531 1530 1530 1527 1527 1526 1526 1527 1531 1534 1536 1538 1540 1542 1544 1546 1548 1550 1552 1554 1556 1558 1560 1562 1564 1565 1567 1569 1570 1571 1573 1574 1574 1575 1576
1518 1525 1532 1533 1532 1530 1528 1528 1529 1528 1529 1530 1529 1530 1530 1529 1529 1528 1528 1528 1527 1527 1530 1532 1536 1538 1540 1542 1543 1545 1548 1549 1551 1554 1555 1557 1560 1563 1565 1566 1567 1569 1570 1572 1573 1575 1576 1576 1577
1519 1525 1534 1533 1530 1529 1529 1529 1529 1530 1529 1529 1529 1528 1527 1528 1528 1528 1529 1529 1529 1529 1530 1531 1533 1536 1539 1542 1543 1545 1547 1549 1551 1553 1555 1557 1560 1562 1564 1566 1568 1569 1571 1572 1574 1575 1577 1578 1578
1519 1528 1533 1529 1532 1529 1530 1530 1530 1530 1529 1529 1528 1527 1526 1526 1526 1527 1527 1528 1528 1528 1530 1530 1531 1533 1536 1539 1540 1544 1547 1548 1551 1553 1555 1557 1560 1562 1563 1565 1567 1569 1571 1572 1574 1575 1577 1578 1580
1520 1527 1527 1527 1528 1530 1531 1531 1531 1530 1528 1527 1527 1526 1526 1525 1525 1525 1525 1526 1527 1527 1528 1529 1529 1531 1533 1535 1538 1542 1545 1547 1550 1552 1554 1556 1558 1561 1563 1565 1566 1568 1570 1572 1574 1575 1577 1578 1579
1521 1525 1526 1527 1528 1529 1529 1530 1529 1528 1525 1524 1525 1525 1525 1524 1523 1523 1523 1525 1525 1526 1527 1527 1528 1529 1530 1532 1535 1538 1542 1546 1547 1549 1552 1554 1556 1559 1562 1564 1566 1567 1570 1571 1573 1575 1576 1578 1579
1523 1526 1528 1528 1527 1528 1528 1527 1525 1524 1519 1520 1521 1521 1521 1520 1519 1519 1519 1520 1522 1522 1524 1525 1525 1526 1527 1529 1531 1534 1537 1541 1544 1547 1549 1551 1553 1557 1559 1561 1564 1566 1568 1570 1572 1574 1576 1577 1578
1524 1527 1527 1527 1527 1526 1525 1523 1522 1514 1515 1516 1516 1516 1516 1515 1514 1515 1515 1514 1516 1517 1519 1521 1523 1523 1524 1526 1527 1529 1532 1535 1540 1543 1546 1548 1551 1554 1557 1559 1562 1564 1567 1569 1571 1573 1575 1577 1578
1525 1526 1526 1525 1524 1524 1522 1516 1517 1509 1510 1510 1510 1511 1510 1510 1509 1509 1509 1508 1509 1511 1512 1515 1517 1519 1520 1521 1522 1524 1527 1530 1534 1538 1541 1544 1547 1550 1553 1556 1558 1561 1564 1567 1569 1572 1575 1576 1577
1524 1525 1525 1524 1524 1522 1519 1508 1508 1506 1506 1503 1504 1504 1503 1502 1502 1501 1501 1501 1502 1502 1504 1506 1510 1512 1515 1516 1518 1519 1521 1524 1527 1531 1535 1538 1542 1545 1549 1552 1555 1557 1560 1564 1567 1570 1573 1575 1576
1526 1529 1527 1525 1524 1520 1520 1499 1504 1506 1505 1501 1498 1498 1496 1495 1494 1493 1493 1493 1493 1494 1494 1497 1500 1503 1507 1510 1513 1515 1516 1519 1522 1525 1528 1532 1537 1540 1543 1547 1551 1554 1557 1560 1563 1566 1569 1572 1575
1533 1531 1535 1528 1523 1521 1520 1503 1505 1504 1503 1496 1491 1490 1488 1485 1484 1483 1482 1483 1483 1484 1486 1487 1491 1494 1498 1502 1506 1509 1511 1512 1515 1518 1521 1525 1529 1533 1537 1541 1546 1550 1552 1555 1559 1561 1566 1568 1571
1537 1536 1535 1533 1523 1520 1519 1505 1501 1496 1496 1491 1486 1483 1480 1477 1474 1474 1473 1472 1472 1474 1476 1478 1481 1484 1488 1493 1496 1500 1503 1505 1508 1511 1515 1518 1522 1527 1531 1536 1540 1544 1548 1551 1554 1558 1561 1566 1569
1535 1538 1538 1529 1520 1521 1512 1503 1496 1485 1489 1485 1482 1478 1474 1472 1470 1467 1465 1465 1464 1464 1465 1468 1471 1475 1480 1482 1485 1488 1492 1498 1501 1503 1507 1511 1515 1520 1524 1528 1534 1539 1542 1547 1550 1555 1558 1561 1565
1531 1534 1529 1519 1515 1515 1504 1496 1486 1482 1481 1479 1477 1474 1469 1464 1461 1459 1456 1455 1454 1455 1455 1458 1461 1465 1469 1473 1476 1480 1484 1488 1493 1497 1500 1504 1509 1513 1517 1521 1527 1532 1536 1540 1545 1548 1553 1557 1560
1527 1531 1527 1522 1515 1510 1508 1490 1484 1481 1478 1476 1475 1470 1464 1459 1454 1450 1448 1446 1444 1443 1446 1449 1451 1455 1459 1463 1468 1472 1476 1480 1483 1487 1492 1496 1502 1504 1509 1514 1519 1524 1529 1532 1537 1542 1546 1551 1554
1530 1518 1518 1518 1518 1519 1508 1502 1485 1480 1477 1475 1472 1468 1460 1454 1450 1445 1439 1435 1433 1432 1435 1437 1440 1444 1449 1454 1458 1462 1466 1469 1473 1479 1484 1489 1493 1496 1501 1507 1511 1517 1521 1525 1531 1536 1540 1545 1548
1517 1515 1515 1515 1517 1519 1511 1510 1483 1482 1475 1472 1468 1462 1458 1451 1444 1436 1430 1427 1423 1423 1425 1428 1431 1435 1441 1446 1450 1453 1457 1462 1467 1472 1477 1481 1486 1490 1495 1499 1503 1508 1512 1517 1523 1528 1533 1536 1541
1512 1513 1515 1516 1514 1513 1508 1508 1488 1479 1475 1468 1463 1456 1449 1442 1435 1428 1422 1420 1418 1418 1418 1420 1422 1426 1432 1437 1442 1445 1448 1453 1458 1464 1469 1474 1478 1483 1487 1493 1497 1500 1504 1510 1515 1520 1525 1531 1536
1514 1517 1529 1527 1527 1509 1521 1509 1479 1476 1471 1467 1458 1451 1443 1434 1424 1419 1415 1412 1411 1412 1413 1414 1417 1419 1424 1429 1433 1437 1441 1445 1448 1455 1461 1466 1470 1474 1479 1485 1490 1493 1497 1502 1507 1512 1517 1523 1527
1514 1519 1527 1519 1517 1502 1506 1489 1473 1469 1466 1463 1457 1447 1436 1426 1417 1410 1407 1406 1406 1407 1408 1410 1412 1415 1419 1422 1425 1429 1433 1436 1441 1447 1453 1459 1463 1468 1473 1478 1481 1487 1490 1493 1499 1504 1509 1513 1517
1512 1508 1508 1510 1513 1501 1500 1487 1471 1468 1464 1458 1451 1442 1430 1419 1409 1403 1399 1397 1400 1403 1405 1405 1406 1408 1411 1415 1420 1423 1425 1429 1434 1440 1444 1451 1457 1461 1466 1470 1475 1478 1484 1486 1490 1495 1499 1504 1509
1505 1506 1503 1503 1506 1488 1488 1500 1479 1471 1459 1450 1442 1437 1428 1418 1409 1402 1396 1395 1397 1397 1399 1400 1402 1403 1406 1410 1412 1414 1418 1422 1428 1434 1439 1443 1449 1456 1461 1465 1468 1472 1476 1480 1484 1487 1492 1495 1500
1504 1503 1502 1497 1499 1494 1487 1485 1481 1474 1466 1458 1450 1441 1430 1420 1412 1405 1400 1397 1397 1395 1396 1396 1396 1398 1401 1404 1406 1408 1412 1418 1421 1427 1433 1440 1444 1448 1455 1459 1463 1466 1469 1473 1476 1478 1482 1487 1491
1502 1502 1501 1502 1495 1503 1496 1481 1470 1468 1464 1458 1449 1439 1429 1420 1412 1407 1402 1398 1395 1394 1394 1394 1393 1392 1395 1398 1400 1403 1407 1413 1418 1423 1429 1435 1439 1442 1446 1451 1455 1459 1461 1465 1468 1469 1475 1478 1481